Aérodrome :
LOGIN :

S'inscrire | Disclaimer

   EN    FR    IT 

 










Légende :    VFR   VFR Marginal   IFR   IFR Intensif   IFR Très Intensif
Visi : 
Plafond : 
>= 8 km
>= 3000ft
5 à 8 km
1000 à 3000 ft
1500m à 5 km
500 à 1000 ft
800 à 1500m
200 à 500 ft
< 800m
< 200 ft
Symboles :   Orages  Brouillard  Fortes neiges  Fortes précipitations  Vent > 20 kt
SIGMETs :   Divers  Orages  Givrage  Turbulence  Onde Orograph.  Cendres Volcan.







- Altitude de l'aérodrome : 23 ft
- Code IATA : XFW


EDHI - Hamburg Finkenwerder

DERNIER METAR :
  • 230520Z 12007KT 080V150 5000 BR FEW008 M05/M07 Q1002

METARs EXPIRÉS :
  • 230450Z 12006KT 090V150 5000 BR FEW008 M05/M07 Q1002
  • 230420Z AUTO 13004KT 070V170 5000 // FEW008/// M05/M07 Q1001
  • 230350Z AUTO 12006KT 070V150 5000 // NCD M05/M07 Q1001
  • 230320Z AUTO 13005KT 100V170 5000 // FEW230/// M05/M07 Q1001
  • 230250Z AUTO 14005KT 110V180 6000 // BKN230/// M05/M06 Q1001

TAF TAF EDHI
Valide du 23 à 06h jusqu'au 23 à 15h UTC


230500Z 2306/2315 11007KT CAVOK
TEMPO 2306/2309 4000 BR BKN008
PROB30
TEMPO 2309/2315 BKN008
Pas de NOTAMs connus pour ce terrain.



MET'MAP, la Météo Aéronautique d'un coup d'oeil ! - Copyright ORBIFLY Décembre 2007 - Disclaimer

ORBIFLY MET'MAP TEAM :

Programmation & Développement : Alexandra Zaïnal
Conception & Développement : Baudouin d'Aumeries
Co-Programmation & Développement : Marc-Olivier Méhu
Soutien technique & logistique : Manuel Goepfert

Contact : metmap@orbifly.com




SOURCES & CREDITS :

   NOAA